Regional Weather Roundup
Issued by NWS Spokane, WA

Home | Current Version | Previous Version | Text Only | Print | Product List | Glossary On
Versions: 1 2 3 4 5 6 7 8 9 10 11 12 13 14 15 16 17 18 19 20 21 22 23 24 25 26 27 28 29 30 31 32 33 34 35 36 37 38 39 40 41 42 43 44 45 46 47 48 49 50
000
NZUS01 KOTX 260225
RWROTX

Eastern Washington/Northern Idaho Roundup
National Weather Service, Spokane WA
700 PM PDT SAT MAR 25 2017

Note: "fair" indicated few or no clouds below 12,000 feet with no
significant weather and/or obstructions to visibility.

...Northeast Washington and Northern Idaho Panhandle...

CITY           SKY/WX    TMP DP  RH WIND       PRES   REMARKS
Spokane Intl   PTCLDY    47  30  51 S9          N/A
Spokane Downto PTCLDY    48  32  53 S10       29.99
Coeur d Alene  MOCLDY    44  33  65 SE12      29.99
Deer Park      MOCLDY    46  29  51 SW10      29.98
Sandpoint      PTCLDY    39  34  81 CALM      29.98R
Bonners Ferry  FAIR      41  30  65 SW7       29.96R

...Southeast Washington and southern Idaho Panhandle...

CITY           SKY/WX    TMP DP  RH WIND       PRES   REMARKS
Walla Walla    PTCLDY    51  39  63 S6        30.03
Pullman/Moscow CLOUDY    45  33  63 SW8       30.03
Lewiston       CLEAR     47  37  68 S5        30.03
Lowell           N/A     45  36  70 VRB3      30.10
Grangeville    CLOUDY    36  36 100 SE9       30.04S

...Columbia Basin...

CITY           SKY/WX    TMP DP  RH WIND       PRES   REMARKS
Ephrata        PTCLDY    50  28  42 S3        29.97
Moses Lake     PTCLDY    52  27  38 SW5       29.99
Pasco          MOCLDY    54  32  43 SW8       30.02
Richland       MOCLDY    54  33  45 S6        30.02R
Hermiston      MOCLDY    53  37  54 W10       30.03
Pendleton      CLOUDY    50  41  71 S5        30.02

...East Slopes Cascades...

CITY           SKY/WX    TMP DP  RH WIND       PRES   REMARKS
The Dalles     CLOUDY    52  37  56 NW14      30.05
Yakima         CLOUDY    53  32  44 W8        29.99
Ellensburg     CLOUDY    47  32  56 NW18G25   30.00
Stampede Pass  FOG       31  31 100 VRB3      29.98F VSB 1/2
Wenatchee      MOCLDY    50  30  46 NW10      29.98
Omak           CLEAR     50  22  33 SW7       29.95
Sunnyside      CLOUDY    49  32  51 W8        30.01S

...Southern British Columbia...

CITY           SKY/WX    TMP DP  RH WIND       PRES   REMARKS
Penticton      PTCLDY    50  21  32 NW6       29.93
Castlegar      MOCLDY    41  37  87 VRB2      29.96F
Cranbrook      PTCLDY    41  27  56 S10       29.90
Osoyoos          N/A     50  36  57 CALM        N/A
Creston          N/A     43  34  70 S6          N/A

...Western Montana...

CITY           SKY/WX    TMP DP  RH WIND       PRES   REMARKS
Kalispell      CLOUDY    44  29  55 SW7       29.96
Missoula       CLOUDY    44  33  65 NW12      30.00

...Neighboring Cities...

CITY           SKY/WX    TMP DP  RH WIND       PRES   REMARKS
Seattle        CLOUDY    48  36  63 S7        30.08
Portland       CLOUDY    50  42  74 W9        30.10
Boise          CLEAR     52  28  39 NW6       30.00
Great Falls    MOCLDY    45  19  35 W9        29.89
Calgary        PTCLDY    43  10  26 W14G25    29.75



USA.gov is the U.S. government's official web portal to all federal, state and local government web resources and services.